Powrót do katalogu

QIANFAN-24

AktywnyŁącznośćPO
NORAD 61557·PAYLOAD·🇨🇳 China

Wystrzelony Oct 15, 2024 z Taiyuan Satellite Launch Center

Loading…

Następne Przeloty (najbliższe 24 godziny)

TLE

ŚwieżeSource: Space-Track

Epoka: Sep 14, 2026, 21:53 UTC

1 61557U 24185F   26257.91236247  .00000471  00000-0  19837-3 0  9993
2 61557  88.9827  44.9349 0011567 113.4906 246.7503 14.24153495109325

Śledź QIANFAN-24 w czasie rzeczywistym z AllMySat

Download on the App Store